Location: Medlow Airstrip Trail, Medlow Bath NSW 2780, Australia
(33.6682°S, 150.3233°E)
Time: 12:34:09
(UTC+11:00)

Courier 1B Rocket - All Passes

Search period start: 24 October 2019 00:00
Search period end: 03 November 2019 00:00
Orbit: 920 x 1202 km, 28.2° (Epoch: 22 October)

Date Brightness Start Highest point End Pass type
(mag) Time Alt. Az. Time Alt. Az. Time Alt. Az.
24 Oct - 12:47:05 10° NNW 12:52:38 23° NNE 12:58:24 10° ENE daylight
24 Oct - 14:38:32 10° WNW 14:45:43 47° NNE 14:53:11 10° E daylight
24 Oct - 16:31:37 10° WNW 16:39:16 59° N 16:46:57 10° ENE daylight
24 Oct - 18:25:23 10° W 18:32:48 46° NNW 18:40:04 10° NE daylight
24 Oct - 20:20:12 10° WNW 20:25:54 22° NNW 20:31:25 10° NNE visible
25 Oct - 11:47:37 10° N 11:51:44 16° NNE 11:55:59 10° ENE daylight
25 Oct - 13:37:50 10° NW 13:44:36 39° NNE 13:51:42 10° E daylight
25 Oct - 15:30:31 10° WNW 15:38:00 58° N 15:45:42 10° E daylight
25 Oct - 17:24:02 10° W 17:31:36 53° N 17:39:08 10° ENE daylight
25 Oct - 19:18:17 10° W 19:24:54 30° NNW 19:31:19 10° NE daylight
26 Oct - 12:37:26 10° NW 12:43:34 30° NNE 12:50:04 10° E daylight
26 Oct - 14:29:32 10° WNW 14:36:47 53° N 14:44:22 10° E daylight
26 Oct - 16:22:48 10° W 16:30:22 57° N 16:38:02 10° ENE daylight
26 Oct - 18:16:42 10° W 18:23:48 38° NNW 18:30:49 10° NE daylight
26 Oct - 20:12:28 10° WNW 20:16:47 16° NNW 20:21:01 10° N visible
27 Oct - 11:37:23 10° NNW 11:42:38 22° NNE 11:48:09 10° ENE daylight
27 Oct - 13:28:43 10° WNW 13:35:38 46° NNE 13:42:57 10° E daylight
27 Oct - 15:21:41 10° WNW 15:29:06 59° N 15:36:49 10° ENE daylight
27 Oct - 17:15:18 10° W 17:22:39 46° NNW 17:30:02 10° NE daylight
27 Oct - 19:10:01 10° WNW 19:15:48 22° NNW 19:21:30 10° NNE daylight
28 Oct - 10:38:02 10° N 10:41:47 15° NNE 10:45:41 10° ENE daylight
28 Oct - 12:28:06 10° NW 12:34:34 38° NNE 12:41:27 10° E daylight
28 Oct - 14:20:40 10° WNW 14:27:53 57° N 14:35:31 10° E daylight
28 Oct - 16:14:02 10° W 16:21:27 52° N 16:29:01 10° ENE daylight
28 Oct - 18:08:11 10° W 18:14:45 30° NNW 18:21:18 10° NE daylight
29 Oct - 11:27:46 10° NW 11:33:36 30° NNE 11:39:48 10° E daylight
29 Oct - 13:19:46 10° WNW 13:26:43 53° N 13:34:08 10° E daylight
29 Oct - 15:12:55 10° W 15:20:13 57° N 15:27:51 10° ENE daylight
29 Oct - 17:06:40 10° W 17:13:39 37° NNW 17:20:43 10° NE daylight
29 Oct - 19:02:21 10° WNW 19:06:42 16° NNW 19:11:01 10° N daylight
30 Oct - 10:27:48 10° NNW 10:32:44 22° NNE 10:37:54 10° ENE daylight
30 Oct - 12:19:02 10° WNW 12:25:38 46° NNE 12:32:42 10° E daylight
30 Oct - 14:11:53 10° WNW 14:19:01 58° N 14:26:35 10° ENE daylight
30 Oct - 16:05:22 10° W 16:12:30 45° NNW 16:19:51 10° NE daylight
30 Oct - 17:59:59 10° WNW 18:05:41 22° NNW 18:11:24 10° NNE daylight
31 Oct - 09:28:32 10° N 09:31:56 15° NNE 09:35:28 10° ENE daylight
31 Oct - 11:18:30 10° NW 11:24:38 37° NNE 11:31:13 10° E daylight
31 Oct - 13:10:57 10° WNW 13:17:51 56° N 13:25:16 10° E daylight
31 Oct - 15:04:12 10° W 15:11:20 51° N 15:18:48 10° ENE daylight
31 Oct - 16:58:13 10° W 17:04:37 29° NNW 17:11:08 10° NNE daylight
01 Nov - 10:18:13 10° NW 10:23:44 29° NNE 10:29:36 10° E daylight
01 Nov - 12:10:08 10° WNW 12:16:46 52° N 12:23:53 10° E daylight
01 Nov - 14:03:10 10° W 14:10:10 55° N 14:17:37 10° ENE daylight
01 Nov - 15:56:48 10° W 16:03:32 36° NNW 16:10:30 10° NE daylight
01 Nov - 17:52:25 10° WNW 17:56:35 15° NNW 18:00:47 10° N daylight
02 Nov - 09:18:17 10° NNW 09:22:55 21° NNE 09:27:46 10° ENE daylight
02 Nov - 11:09:28 10° WNW 11:15:45 45° NNE 11:22:29 10° E daylight
02 Nov - 13:02:13 10° WNW 13:09:01 57° N 13:16:20 10° ENE daylight
02 Nov - 14:55:35 10° W 15:02:25 43° NNW 15:09:36 10° NE daylight
02 Nov - 16:50:07 10° WNW 16:55:34 21° NNW 17:01:09 10° NNE daylight
